Location: Trois-Rivi�res
(46.3500°N, 72.5500°W)
Time: 14:32:28
(UTC-04:00)

Envisat - Pass Details

Date: 09 October 2017
Orbit: 764 x 766 km, 98.2° (Epoch: 18 October)

Event Time Altitude Azimuth Distance (km) Brightness Sun altitude
Exits shadow 21:44:40 21° 257° (WSW) 1,656 5.0 -35.7°
Maximum altitude 21:45:18 22° 268° (W) 1,635 5.1 -35.8°
Drops below altitude 10° 21:49:12 10° 319° (NW) 2,311 6.2 -36.4°
Sets 21:52:02 0° 334° (NNW) 3,242 7.0 -36.8°
